Weather History for KMLI - October, 2013

Change the Weather History Date:

Tuesday, October 1, 2013

  Actual Average Record
Temperature  
Mean Temperature 71 °F 59 °F  
Max Temperature 83 °F 70 °F 89 °F (1897)
Min Temperature 59 °F 47 °F 30 °F (2003)
Degree Days  
Heating Degree Days 0 8  
Month to date heating degree days 0 8  
Since 1 July heating degree days 78 112  
Cooling Degree Days 6 1  
Month to date cooling degree days 6 1  
Year to date cooling degree days 977 990  
Growing Degree Days 20 (Base 50)    
Moisture  
Dew Point 60 °F    
Average Humidity 70    
Maximum Humidity 93    
Minimum Humidity 47    
Precipitation  
Precipitation 0.00 in 0.09 in 1.37 in (1883)
Month to date precipitation 0.00 0.09  
Year to date precipitation 33.57 30.34  
Snow  
Snow 0.00 in 0.00 in - ()
Month to date snowfall 0.0 0.0  
Since 1 July snowfall 0.0 0.0  
Since 1 September snowfall 0.0 0.0  
Snow Depth 0.00 in    
Sea Level Pressure  
Sea Level Pressure 29.91 in    
Wind  
Wind Speed 8 mph (SSW)    
Max Wind Speed 13 mph    
Max Gust Speed 17 mph    
Visibility 10 miles    
Events      
T = Trace of Precipitation, MM = Missing Value Source: NWS Daily Summary

Daily Weather History Graph

Daily Weather History Graph

Search for Another Location

Airport or City:

Trip Planner

Search our weather history database for the weather conditions in past years. The results will help you decide how hot, cold, wet, or windy it might be!

Date:

Astronomy

Oct. 01, 2013 Rise Set
Actual Time 6:59 AM CDT 6:43 PM CDT
Civil Twilight 6:31 AM CDT 7:10 PM CDT
Nautical Twilight 5:59 AM CDT 7:42 PM CDT
Astronomical Twilight 5:26 AM CDT 8:15 PM CDT
Moon 3:31 AM CDT (10/1) 4:48 PM CDT (10/1)
Length of Visible Light 12h 39m
Length of Day
11h 44m
Waning Crescent, 12% of the Moon is Illuminated
Oct 1
Waning Crescent
Oct 4
New
Oct 11
First Quarter
Oct 18
Full
Oct 26
Last Quarter

Hourly Weather History & Observations

Time (CDT) Temp. Heat Index Dew Point Humidity Pressure Visibility Wind Dir Wind Speed Gust Speed Precip Events Conditions
12:52 AM 62.1 °F - 55.9 °F 80% 29.87 in 10.0 mi SSW 3.5 mph - N/A   Clear
1:52 AM 61.0 °F - 55.9 °F 83% 29.88 in 10.0 mi South 4.6 mph - N/A   Clear
2:52 AM 60.1 °F - 55.9 °F 86% 29.88 in 10.0 mi South 4.6 mph - N/A   Clear
3:52 AM 61.0 °F - 55.9 °F 83% 29.87 in 10.0 mi South 6.9 mph - N/A   Clear
4:52 AM 60.1 °F - 57.0 °F 90% 29.88 in 10.0 mi South 4.6 mph - N/A   Clear
5:52 AM 60.1 °F - 57.0 °F 90% 29.89 in 10.0 mi South 5.8 mph - N/A   Clear
6:50 AM 60.8 °F - 57.2 °F 88% 29.91 in 10.0 mi SSW 8.1 mph - N/A   Partly Cloudy
6:52 AM 61.0 °F - 57.9 °F 90% 29.91 in 10.0 mi South 10.4 mph - N/A   Partly Cloudy
7:08 AM 60.8 °F - 59.0 °F 94% 29.92 in 10.0 mi SSW 9.2 mph 17.3 mph N/A   Mostly Cloudy
7:52 AM 62.1 °F - 60.1 °F 93% 29.93 in 4.0 mi SSW 10.4 mph 18.4 mph N/A   Overcast
8:52 AM 64.9 °F - 62.1 °F 90% 29.92 in 8.0 mi SSW 12.7 mph 18.4 mph N/A   Mostly Cloudy
9:52 AM 69.1 °F - 62.1 °F 78% 29.94 in 10.0 mi SSW 12.7 mph 20.7 mph N/A   Mostly Cloudy
10:12 AM 69.8 °F - 62.6 °F 78% 29.94 in 10.0 mi South 12.7 mph 19.6 mph N/A   Scattered Clouds
10:52 AM 73.9 °F - 62.1 °F 66% 29.92 in 10.0 mi SW 12.7 mph 20.7 mph N/A   Clear
11:52 AM 78.1 °F - 62.1 °F 58% 29.91 in 10.0 mi SW 15.0 mph 20.7 mph N/A   Clear
12:52 PM 80.1 °F 81.2 °F 62.1 °F 54% 29.90 in 10.0 mi SW 12.7 mph 21.9 mph N/A   Clear
1:52 PM 82.0 °F 83.1 °F 63.0 °F 52% 29.88 in 10.0 mi SW 11.5 mph 21.9 mph N/A   Clear
2:52 PM 82.0 °F 83.0 °F 62.1 °F 51% 29.88 in 10.0 mi SSW 12.7 mph 23.0 mph N/A   Clear
3:52 PM 82.9 °F 83.3 °F 61.0 °F 47% 29.88 in 10.0 mi WSW 11.5 mph - N/A   Clear
4:52 PM 82.0 °F 82.7 °F 61.0 °F 49% 29.88 in 10.0 mi SW 9.2 mph - N/A   Clear
5:52 PM 81.0 °F 81.7 °F 61.0 °F 50% 29.89 in 10.0 mi SW 6.9 mph - N/A   Unknown
6:52 PM 75.0 °F - 62.1 °F 64% 29.90 in 10.0 mi South 4.6 mph - N/A   Clear
7:52 PM 73.0 °F - 61.0 °F 66% 29.91 in 10.0 mi South 5.8 mph - N/A   Clear
8:52 PM 72.0 °F - 61.0 °F 68% 29.93 in 10.0 mi SSW 6.9 mph - N/A   Clear
9:52 PM 66.9 °F - 60.1 °F 79% 29.94 in 10.0 mi West 3.5 mph - N/A   Clear
10:52 PM 62.1 °F - 57.9 °F 86% 29.96 in 10.0 mi Calm Calm - N/A   Clear
11:52 PM 61.0 °F - 57.9 °F 90% 29.96 in 10.0 mi SSE 3.5 mph - N/A   Clear